CAPE
870 443 187 317 674 871 1113 1464 1695 1541 1589 1507 1236 1059 871 870 771 850 680 508 471 401 528 781 767 753 461 390 83 16 43 153 212 203 190 217 203 384 286 372 477 839 664
956 479 150 113 441 849 1108 1360 1851 1994 1908 1891 1578 1372 1089 1047 1027 820 805 669 475 417 93 478 554 805 833 748 461 266 221 357 599 649 553 360 224 219 206 513 242 561 577
1070 857 120 43 59 428 1047 1488 1689 1969 1386 1688 1898 1649 1439 1212 961 878 644 289 152 33 0 170 602 538 787 657 297 308 395 583 711 580 360 728 480 274 3 155 199 368 316
1122 765 384 211 190 168 499 1094 1505 1570 1421 1272 1591 1494 1452 1152 753 818 305 0 1 45 9 21 389 392 555 473 528 521 645 741 641 369 145 195 741 379 0 0 175 316 341
1253 1097 584 401 389 273 336 708 1070 1121 1233 1246 1385 1399 1271 1323 838 541 355 248 172 511 1008 635 67 265 432 552 640 644 661 722 620 507 399 335 582 700 140 0 32 166 154
1480 1349 790 742 723 559 343 840 1027 859 931 1100 1040 1017 1628 1225 851 422 31 59 184 685 400 114 1 11 345 290 579 835 732 653 562 421 525 187 102 811 462 4 238 61 17
1574 1734 1132 885 993 960 738 569 696 977 846 744 765 956 1114 1118 1354 1130 1099 888 570 455 12 0 0 0 34 98 618 751 1034 875 827 656 637 151 248 887 717 330 537 664 63
1714 1868 1686 1134 967 896 751 592 418 543 721 884 809 582 740 710 544 635 637 540 503 475 331 114 119 248 499 176 244 590 641 571 622 486 307 74 357 570 855 539 446 636 568
1193 1408 1771 1860 1388 1152 724 415 529 507 613 850 952 832 566 837 736 347 305 357 269 228 282 430 471 494 349 279 198 231 296 255 158 262 249 214 611 682 822 642 634 744 619
1338 1355 1335 1452 1920 1413 723 152 231 419 515 646 805 809 843 700 400 272 190 48 28 31 2 13 4 209 390 266 202 118 123 89 49 82 216 267 512 592 880 1065 815 570 285
809 741 1321 1536 1674 1387 1082 256 754 581 581 629 563 431 422 1121 658 272 0 0 0 0 0 0 0 0 0 0 103 54 4 1 0 72 106 175 219 343 422 790 704 583 397
95 17 90 599 1118 1290 1061 314 1466 1247 1043 961 1028 873 839 763 394 274 86 0 0 0 0 0 0 0 0 0 0 14 4 0 0 29 270 154 110 138 129 210 579 518 351
0 0 0 303 916 1291 1087 1164 1273 994 936 762 711 575 411 206 164 191 194 224 105 0 0 0 0 0 0 0 0 0 0 0 0 0 0 28 6 49 134 75 511 440 354
0 0 0 255 572 596 572 483 650 429 376 283 298 299 180 137 70 119 39 9 0 0 2 1 0 0 0 0 0 0 0 0 0 1 6 21 0 25 96 214 314 426 365
0 0 0 6 248 431 224 81 1 0 0 0 0 0 0 1 18 3 0 0 0 0 0 0 0 0 0 0 0 0 0 0 1 0 2 2 0 0 0 85 251 370 352
0 0 0 0 0 0 37 0 0 0 0 0 0 0 0 0 0 0 0 0 0 0 0 1 6 9 4 0 0 0 1 2 0 2 41 14 0 0 0 0 18 266 418
0 0 0 0 0 0 0 0 0 0 0 0 0 0 0 0 0 0 0 0 0 0 0 0 0 0 0 0 7 28 45 25 32 74 70 79 37 6 0 0 0 0 79
0 0 0 0 0 0 0 0 0 0 0 0 0 0 0 0 0 0 0 0 0 0 0 0 0 0 0 0 0 0 0 0 32 87 111 122 91 30 12 0 0 0 0
0 0 0 0 0 0 0 0 0 0 0 0 0 0 0 0 0 0 0 0 0 0 0 0 0 0 0 0 0 0 0 0 0 0 54 112 150 75 26 39 3 0 0
0 0 0 0 0 0 0 0 0 0 0 0 0 0 0 0 0 0 0 0 0 0 0 0 0 0 0 0 0 0 0 0 0 0 2 95 157 151 74 32 9 0 0
0 0 0 0 0 0 0 0 0 0 0 0 0 0 0 0 0 0 0 0 0 0 0 0 0 0 0 0 0 0 0 0 0 0 0 6 93 147 119 40 11 3 0
0 0 0 0 0 0 0 0 0 0 0 0 0 0 0 0 0 0 0 0 0 0 0 0 0 0 0 0 0 0 0 0 0 0 0 0 0 0 33 87 24 4 2
0 0 0 0 0 0 0 0 0 0 0 0 0 0 0 0 0 0 0 0 0 0 0 0 0 0 0 0 0 0 0 0 0 0 0 0 0 0 0 0 11 15 1
0 0 0 0 0 0 0 0 0 0 0 0 0 0 0 0 0 3 5 11 11 4 0 0 0 1 0 0 0 3 0 0 0 0 0 0 0 0 0 0 0 2 20
0 0 0 0 0 0 0 0 0 0 0 0 0 0 0 0 0 0 0 0 2 9 5 0 0 0 0 0 0 14 5 0 0 0 0 0 0 0 0 0 0 0 0
0 0 0 0 0 0 0 0 0 0 0 0 0 0 0 0 0 0 0 0 0 0 0 0 0 0 0 0 0 0 0 3 0 0 0 0 0 0 0 0 0 0 0
CIN
-8 -175 -403 -362 -239 -183 -108 -50 -31 -49 -32 -22 -39 -61 -75 -53 -98 -44 -59 -46 -55 -22 -10 -18 -30 -19 -51 -66 -104 -132 -141 -103 -81 -85 -96 -109 -106 -72 -56 -23 -9 -2 -15
-62 -197 -419 -481 -330 -213 -135 -55 -8 -10 -7 -7 -12 -13 -30 -80 -76 -125 -80 -15 -24 -49 -141 -19 -12 -19 -35 -50 -65 -91 -92 -71 -50 -34 -44 -81 -92 -72 -51 -14 -30 -9 -18
-58 -121 -440 -580 -563 -346 -114 -26 -7 -2 -51 -15 -7 -13 -11 -46 -73 -126 -139 -190 -94 -94 -0 -130 -9 -11 -25 -35 -75 -82 -72 -52 -49 -45 -65 -20 -50 -73 -86 -85 -57 -21 -20
-81 -193 -355 -436 -450 -472 -318 -141 -33 -20 -33 -42 -17 -17 -19 -45 -87 -67 -162 -0 -357 -268 -101 -210 -90 -1 -17 -15 -33 -40 -32 -36 -45 -63 -128 -79 -9 -83 -0 -0 -107 -26 -26
-89 -148 -314 -368 -389 -447 -406 -256 -115 -77 -49 -48 -23 -13 -22 -25 -62 -109 -143 -154 -138 -28 -9 -5 -0 -0 -4 -12 -23 -33 -25 -17 -43 -51 -46 -37 -36 -40 -167 -0 -75 -125 -81
-69 -107 -277 -285 -288 -325 -404 -216 -138 -164 -118 -77 -69 -37 -4 -26 -64 -157 -407 -334 -115 -24 -23 -110 -31 -7 -0 -4 -4 -18 -38 -29 -30 -43 -36 -48 -94 -24 -66 -294 -132 -108 -116
-87 -70 -188 -254 -219 -209 -240 -275 -221 -120 -139 -161 -125 -74 -40 -48 -13 -15 -12 -14 -29 -50 -136 -0 -0 -0 -5 -58 -16 -15 -2 -27 -20 -27 -14 -54 -42 -24 -17 -110 -50 -23 -193
-71 -64 -102 -192 -202 -211 -219 -233 -259 -200 -135 -98 -120 -130 -82 -77 -97 -105 -94 -85 -89 -86 -92 -151 -182 -81 -17 -80 -77 -34 -19 -34 -41 -33 -40 -67 -50 -33 -21 -40 -64 -19 -28
-78 -51 -9 -56 -105 -140 -198 -239 -198 -192 -167 -117 -68 -82 -87 -57 -72 -159 -174 -137 -135 -140 -91 -7 -10 -23 -64 -124 -152 -99 -55 -99 -122 -68 -42 -61 -37 -36 -18 -24 -22 -13 -18
-39 -25 -26 -3 -19 -97 -183 -291 -253 -195 -163 -131 -78 -53 -42 -46 -88 -112 -130 -172 -196 -161 -76 -212 -199 -41 -21 -63 -110 -188 -129 -137 -188 -123 -32 -52 -61 -59 -13 -1 -6 -10 -75
-78 -102 -63 -31 -12 -32 -13 -195 -95 -118 -102 -92 -88 -93 -72 -5 -22 -55 -0 -0 -0 -0 -0 -0 -0 -0 -2 -0 -87 -160 -280 -220 -0 -95 -39 -44 -87 -69 -53 -13 -8 -15 -41
-164 -125 -194 -150 -83 -49 -7 -54 -7 -9 -9 -12 -5 -10 -9 -3 -40 -44 -88 -0 -0 -0 -0 -0 -0 -0 -0 -0 -0 -44 -221 -0 -0 -67 -8 -34 -78 -83 -109 -83 -11 -25 -47
-0 -0 -0 -177 -108 -31 -7 -10 -7 -19 -11 -3 -1 -6 -44 -99 -105 -70 -56 -44 -86 -0 -0 -0 -0 -0 -0 -0 -0 -0 -0 -0 -0 -0 -0 -78 -121 -112 -59 -100 -29 -21 -28
-0 -0 -0 -250 -157 -119 -81 -63 -49 -93 -96 -119 -131 -108 -151 -154 -189 -121 -182 -71 -0 -0 -0 -0 -0 -0 -0 -0 -0 -0 -0 -0 -0 -22 -71 -49 -0 -100 -37 -38 -31 -26 -20
-0 -0 -0 -64 -260 -162 -209 -259 -78 -0 -0 -0 -0 -0 -38 -89 -232 -154 -0 -0 -0 -0 -0 -0 -0 -0 -0 -0 -0 -0 -0 -0 -38 -0 -49 -57 -0 -0 -40 -35 -4 -6 -26
-0 -0 -0 -0 -0 -0 -290 -0 -0 -0 -0 -0 -0 -0 -0 -0 -0 -0 -0 -0 -0 -0 -0 -2 -0 -0 -3 -0 -0 -0 -25 -50 -0 -30 -11 -45 -0 -0 -0 -0 -15 -8 -0
-0 -0 -0 -0 -0 -0 -0 -0 -0 -0 -0 -0 -0 -0 -0 -0 -0 -0 -0 -0 -0 -0 -0 -0 -0 -0 -0 -0 -2 -0 -0 -26 -71 -34 -29 -9 -11 -115 -0 -0 -0 -0 -10
-0 -0 -0 -0 -0 -0 -0 -0 -0 -0 -0 -0 -0 -0 -0 -0 -0 -0 -0 -0 -0 -0 -0 -0 -0 -0 -0 -0 -0 -0 -0 -0 -8 -13 -26 -8 -26 -19 -92 -4 -0 -0 -0
-0 -0 -0 -0 -0 -0 -0 -0 -0 -0 -0 -0 -0 -0 -0 -0 -0 -0 -0 -0 -0 -0 -0 -0 -0 -0 -0 -0 -0 -0 -0 -0 -0 -0 -22 -13 -18 -23 -59 -101 -114 -0 -0
-0 -0 -0 -0 -0 -0 -0 -0 -0 -0 -0 -0 -0 -0 -0 -0 -0 -0 -0 -0 -0 -0 -0 -0 -0 -0 -0 -0 -0 -0 -0 -0 -0 -0 -4 -8 -13 -17 -28 -88 -152 -0 -0
-0 -0 -0 -0 -0 -0 -0 -0 -0 -0 -0 -0 -0 -0 -0 -0 -0 -0 -0 -0 -0 -0 -0 -0 -0 -0 -0 -0 -0 -0 -0 -0 -0 -0 -0 -3 -4 -15 -16 -48 -149 -2 -0
-0 -0 -0 -0 -0 -0 -0 -0 -0 -0 -0 -0 -0 -0 -0 -0 -0 -0 -0 -0 -0 -0 -0 -0 -0 -0 -0 -0 -0 -0 -0 -0 -0 -0 -0 -0 -0 -0 -31 -5 -47 -17 -14
-0 -0 -0 -0 -0 -0 -0 -0 -0 -0 -0 -0 -0 -0 -0 -0 -0 -0 -0 -0 -0 -0 -0 -0 -0 -0 -0 -0 -0 -0 -0 -0 -0 -0 -0 -0 -0 -0 -0 -0 -5 -5 -7
-0 -0 -0 -0 -0 -0 -0 -0 -0 -0 -0 -0 -0 -0 -0 -0 -0 -6 -3 -6 -4 -4 -0 -0 -0 -1 -0 -0 -0 -1 -0 -0 -0 -0 -0 -0 -0 -0 -0 -0 -0 -1 -2
-0 -0 -0 -0 -0 -0 -0 -0 -0 -0 -0 -0 -0 -0 -0 -0 -0 -0 -0 -0 -0 -10 -11 -0 -0 -0 -0 -0 -0 -3 -3 -0 -0 -0 -0 -0 -0 -0 -0 -0 -0 -0 -0
-0 -0 -0 -0 -0 -0 -0 -0 -0 -0 -0 -0 -0 -0 -0 -0 -0 -0 -0 -0 -0 -0 -0 -0 -0 -0 -0 -0 -0 -0 -0 -9 -2 -0 -0 -0 -0 -0 -0 -0 -0 -0 -0
Wind_Speed
19 15 15 16 17 16 18 19 18 17 16 14 14 12 11 9 10 11 13 14 16 17 18 17 17 17 17 16 14 13 13 12 12 13 13 13 13 14 13 12 10 9 6
15 16 16 17 17 18 18 18 19 20 18 15 15 14 11 10 9 9 12 16 17 19 23 26 23 19 15 14 14 13 12 11 12 12 11 10 11 13 14 16 17 8 5
13 14 16 17 18 18 18 20 21 19 20 19 17 17 15 11 11 10 7 14 26 28 28 25 30 28 21 14 14 13 12 11 10 11 13 12 8 9 12 15 14 7 7
14 16 17 18 19 19 20 20 20 20 19 19 21 18 14 13 13 14 16 14 14 26 33 24 25 30 26 18 17 16 14 13 11 11 14 20 11 11 12 13 15 13 10
15 17 17 18 19 20 20 21 20 20 20 19 20 20 17 15 15 13 17 15 13 12 12 23 23 30 28 22 20 17 18 17 15 14 17 25 10 10 11 12 13 15 12
15 16 17 18 20 20 20 21 21 21 20 19 19 19 19 16 15 16 14 11 12 15 17 18 22 35 30 27 25 20 18 17 18 15 21 14 16 9 11 10 13 13 15
16 16 17 18 19 20 21 21 21 20 20 21 21 20 19 18 16 16 17 16 17 15 17 16 12 19 25 18 25 17 18 12 17 16 13 13 13 12 13 12 12 14 11
15 15 15 17 18 19 20 20 20 19 19 19 20 20 19 18 17 16 17 17 18 19 18 16 10 5 8 13 12 14 18 18 15 26 26 21 9 10 13 15 14 13 11
17 18 16 15 17 18 18 19 19 18 18 17 18 18 17 17 17 17 17 17 18 19 18 15 12 11 11 12 12 14 18 17 18 23 29 25 10 11 14 15 14 12 9
16 19 20 18 14 15 16 17 18 17 16 17 16 16 16 16 17 18 18 17 17 18 18 17 16 16 14 18 18 18 17 17 19 22 24 20 16 15 16 17 14 13 13
18 19 19 22 21 19 14 16 16 16 16 15 16 15 13 14 17 15 17 18 17 18 18 17 18 18 19 22 23 23 25 22 20 22 23 20 19 20 20 20 20 16 15
17 18 20 21 22 21 17 19 15 18 17 16 16 16 15 16 18 17 15 17 18 18 20 21 20 20 21 22 24 25 27 27 26 24 24 23 21 22 22 23 24 21 17
16 19 21 22 21 18 18 17 15 14 14 17 18 19 18 17 18 16 17 17 16 18 18 20 21 20 24 26 23 25 30 30 30 30 28 24 25 25 25 24 24 22 20
9 12 15 15 15 14 15 15 14 14 14 16 17 16 17 16 18 18 18 19 18 19 20 20 20 20 20 18 21 23 28 33 33 34 35 34 32 32 33 29 27 22 21
7 10 11 12 13 13 14 15 15 14 16 15 16 18 20 18 18 16 17 17 20 20 21 22 23 22 21 19 14 28 34 35 35 32 35 37 35 36 35 33 31 26 22
5 9 11 10 12 13 14 14 13 14 15 16 17 18 18 20 21 20 20 21 21 24 26 26 25 22 21 19 16 8 19 32 35 34 33 28 31 36 37 37 35 30 26
6 9 10 9 11 12 13 13 12 14 15 16 17 18 19 19 20 21 21 22 23 22 24 25 26 27 27 25 23 20 19 14 13 24 29 30 34 33 34 35 37 37 32
7 6 7 8 10 11 11 12 13 13 14 15 15 16 16 17 18 19 20 22 24 24 24 26 27 29 30 30 28 26 26 28 24 17 18 29 29 33 32 34 36 39 39
7 7 7 11 13 13 15 16 16 16 15 13 14 14 16 17 19 20 20 21 24 24 25 27 30 30 31 31 32 32 32 32 30 33 25 20 19 28 29 31 32 34 36
7 8 9 10 12 12 14 13 15 14 14 15 15 15 14 15 17 19 20 20 22 25 26 29 31 31 32 34 32 34 34 36 33 33 35 34 28 21 23 22 28 31 35
10 10 11 12 13 13 16 18 18 18 18 18 17 16 17 18 18 20 23 25 24 25 28 29 31 33 35 34 37 36 33 36 36 35 33 34 37 34 26 25 24 27 26
11 11 12 14 15 15 17 19 19 20 20 18 18 18 18 20 20 21 22 24 25 27 30 32 32 33 33 35 36 40 40 39 34 32 33 32 30 32 35 31 27 27 29
12 12 14 14 16 15 15 19 20 21 24 24 22 21 19 21 20 21 22 24 25 27 29 31 34 36 38 35 36 39 43 41 41 39 38 38 35 36 35 34 35 28 27
16 15 16 17 17 18 17 19 21 24 24 23 23 23 23 20 19 20 23 25 26 26 29 31 31 34 38 41 39 37 39 42 45 48 39 40 40 41 40 39 38 34 34
25 20 18 19 18 20 21 20 21 24 25 25 26 26 23 20 20 22 24 27 28 28 30 33 35 38 38 40 40 40 40 42 43 46 51 44 41 38 40 41 40 37 36
28 23 22 21 22 22 23 24 23 24 26 28 27 27 25 22 22 23 25 26 28 31 33 35 37 39 41 41 42 42 44 44 44 45 50 49 48 44 43 43 41 41 41
Wind_Direction
13 4 357 356 357 355 355 349 346 348 350 348 344 352 351 358 1 349 342 323 315 312 308 303 293 291 290 294 298 302 307 310 313 315 306 304 302 294 294 292 292 325 5
18 15 14 4 357 354 345 340 344 343 338 346 353 344 345 344 350 357 336 335 322 317 300 291 286 282 284 291 293 298 304 308 308 311 313 312 305 293 285 274 273 296 353
347 17 4 354 346 342 340 349 352 344 355 352 341 334 339 344 343 341 357 339 303 300 304 294 281 264 269 280 283 287 298 309 313 306 299 295 315 308 295 276 282 309 313
357 3 356 354 352 351 350 355 356 359 356 345 336 338 336 337 332 320 318 331 327 306 279 300 294 254 263 275 268 273 283 295 309 308 297 266 289 296 294 281 274 282 297
4 354 351 357 358 359 359 358 359 357 358 351 341 339 336 342 329 332 322 329 334 323 323 309 314 283 267 273 268 272 275 283 297 300 293 268 303 302 302 289 279 277 287
2 3 360 0 2 1 1 358 354 352 352 354 347 336 350 348 345 343 349 348 340 335 330 328 315 313 276 278 273 276 282 288 286 299 283 300 289 298 301 299 284 282 276
357 358 2 2 1 360 359 358 354 350 345 343 346 349 353 351 349 345 342 341 335 337 339 338 319 314 243 301 284 319 296 301 291 294 303 297 295 287 291 296 287 285 285
2 0 4 4 4 1 359 357 355 350 349 348 347 348 350 351 349 350 345 342 340 339 343 351 1 336 321 335 328 320 299 291 296 274 278 289 278 285 286 286 280 280 276
353 353 359 5 5 2 3 3 359 355 353 353 351 350 352 355 356 354 350 346 341 339 345 354 351 345 337 321 315 313 301 297 292 282 275 292 279 282 286 288 283 274 266
2 350 346 355 12 7 0 2 358 358 358 355 354 356 357 357 359 355 352 353 346 344 342 342 344 338 327 310 307 295 297 299 291 285 283 287 281 283 286 286 280 271 266
349 353 350 338 345 350 360 358 1 6 8 9 5 5 9 7 2 5 1 1 360 352 351 345 340 333 327 319 303 297 285 289 288 282 281 285 281 279 281 283 277 272 269
356 355 351 348 344 345 352 349 358 356 6 6 8 12 10 6 6 11 17 7 359 353 345 338 336 334 330 319 312 301 289 283 284 280 282 276 279 281 281 279 275 271 267
1 352 348 348 352 3 7 10 16 19 25 18 11 2 1 4 5 10 3 7 7 3 2 358 347 331 324 326 310 303 292 285 282 278 280 278 278 278 279 279 274 270 266
96 41 19 22 31 35 39 33 38 28 21 10 5 8 5 2 356 356 360 354 356 355 349 351 354 351 344 337 306 302 291 283 282 276 274 276 278 276 274 275 272 270 265
76 49 37 36 35 32 19 6 3 6 357 357 355 348 344 349 349 352 351 352 347 347 345 342 340 342 343 352 3 295 286 285 278 281 276 273 275 275 274 273 273 268 263
47 20 15 21 14 8 2 2 359 354 351 348 346 345 343 342 338 340 339 338 340 338 335 335 335 335 333 333 336 336 311 287 278 279 281 279 275 275 273 271 271 270 268
21 11 8 11 6 360 356 352 351 348 344 342 341 340 338 340 338 335 335 334 337 338 338 336 334 332 327 325 322 321 320 312 306 297 288 283 274 277 274 271 269 268 270
10 15 7 4 359 353 349 346 342 342 338 338 339 339 339 338 337 336 335 334 333 333 333 332 330 327 325 321 317 314 309 304 305 305 300 287 282 277 276 273 270 269 270
357 358 355 347 342 341 336 334 334 336 333 333 335 334 335 335 334 332 332 332 331 330 328 328 326 325 323 320 315 310 305 302 299 293 297 296 292 283 283 279 277 274 271
357 350 345 341 337 338 338 334 334 331 327 333 329 326 334 331 333 332 331 330 330 326 325 325 323 323 320 316 313 309 305 299 296 293 289 286 289 286 285 287 285 280 275
349 344 337 334 333 334 329 327 324 323 323 321 323 322 326 325 326 326 325 327 327 326 326 324 321 319 317 316 310 307 306 302 297 292 292 288 281 282 281 283 284 282 286
348 342 336 331 327 324 325 322 320 321 318 313 316 313 313 317 317 321 322 322 323 323 322 322 320 318 317 315 311 307 302 300 300 299 296 294 293 288 281 281 279 283 279
344 336 333 327 323 319 315 320 317 315 316 319 315 315 311 309 310 314 317 318 319 320 321 321 318 315 313 313 311 306 300 295 296 294 292 290 288 288 286 287 285 279 278
341 334 330 328 323 319 314 311 312 311 310 310 310 309 302 301 307 312 317 319 319 320 320 320 319 316 313 309 308 305 300 297 293 290 291 288 286 284 283 281 284 284 282
344 341 333 330 325 321 317 309 305 307 308 310 314 314 314 313 314 318 319 319 317 318 319 319 316 314 312 309 305 303 300 296 293 290 286 288 287 285 283 281 278 280 282
348 345 339 332 325 321 318 314 307 302 306 311 309 311 309 309 313 319 321 320 318 317 317 316 315 313 310 307 303 300 296 293 291 289 286 285 284 283 281 280 280 280 279